Weather observations for the past three days for
Springfield - Abraham Lincoln Capital Airport
Imperial (Metric)
Date Time (cdt) Wind (mph) Vis. (mi.) Weather Sky Cond. Temperature (ºF) Relative Humidity Wind Chill (°F) Heat Index (°F) Pressure Precipitation (in)
Air Dwpt 6 hour altimeter (in) sea level (mb) 1 hr 3 hr 6 hr
Max. Min.
12 12:52 SW 9 10.00 Fair CLR 87.1 64 87.1 68 46% 88 29.96 1013.9
12 11:52 SW 12 G 18 10.00 Fair CLR 84.9 64 50% 86 29.97 1014.3
12 10:52 SW 13 G 23 10.00 Fair CLR 84 63 49% 85 29.97 1014.4
12 09:52 SW 10 10.00 Fair CLR 81 63 54% 82 29.98 1014.6
12 08:52 SW 9 G 17 10.00 Fair CLR 78.1 62.1 58% 80 29.98 1014.9
12 06:52 SW 6 10.00 Fair CLR 68 57 68 64.9 68% 29.99 1014.9
12 05:52 S 8 10.00 A Few Clouds FEW100 66 55.9 70% 29.98 1014.8
12 04:52 SW 6 10.00 A Few Clouds FEW095 66 54 65% 29.97 1014.4
12 03:52 Calm 10.00 Fair CLR 66 53.1 63% 29.97 1014.3
12 02:52 S 6 10.00 Fair CLR 66 51.1 59% 29.96 1014.2
12 01:52 S 8 10.00 Fair CLR 66.9 51.1 57% 29.96 1013.9
12 00:52 S 9 10.00 Fair CLR 68 53.1 77 66.9 59% 29.96 1014.1
11 23:52 S 7 10.00 Fair CLR 66.9 54 63% 29.96 1014.2
11 22:52 S 6 10.00 Fair CLR 68 54 61% 29.96 1014.0
11 21:52 S 5 10.00 A Few Clouds FEW095 68 54 61% 29.95 1013.9
11 20:52 SW 5 10.00 Fair CLR 73 53.1 50% 29.95 1013.8
11 19:52 SW 6 10.00 Fair CLR 75.9 52 43% 78 29.94 1013.6
11 18:52 S 7 10.00 Fair CLR 77 54 80.1 75.9 45% 78 29.94 1013.7
11 17:52 S 8 10.00 Fair CLR 79 51.1 38% 79 29.94 1013.8
11 16:52 SW 9 10.00 Fair CLR 80.1 50 35% 80 29.96 1014.3
11 15:52 SW 9 10.00 Fair CLR 78.1 46.9 33% 78 29.97 1014.6
11 14:52 Vrbl 7 10.00 Fair CLR 78.1 46 32% 78 29.98 1015.0
11 13:52 S 8 10.00 Fair CLR 78.1 44.1 30% 78 30 1015.6
11 12:52 SW 8 10.00 Fair CLR 77 44.1 77 55.9 31% 78 30.02 1016.3
11 11:52 S 6 10.00 Fair CLR 73.9 43 33% 30.03 1016.6
11 10:52 S 7 10.00 Fair CLR 73 44.1 35% 30.03 1016.7
11 09:52 S 5 10.00 Fair CLR 70 43 38% 30.04 1017.1
11 08:52 S 9 10.00 Fair CLR 66.9 39 36% 30.05 1017.3
11 07:52 S 5 10.00 Fair CLR 62.1 43 50% 30.05 1017.4
11 06:52 Calm 10.00 Fair CLR 55.9 45 55.9 48.9 67% 30.06 1017.5
11 05:52 Calm 10.00 Fair CLR 48.9 44.1 83% 30.05 1017.5
11 04:52 Calm 10.00 Fair CLR 54 42.1 64% 30.05 1017.3
11 03:52 E 7 10.00 Fair CLR 54 43 67% 30.03 1016.8
11 02:52 E 7 10.00 Fair CLR 54 46 75% 30.01 1016.1
11 01:52 E 3 10.00 Fair CLR 52 46.9 83% 30 1015.9
11 00:52 Calm 10.00 Fair CLR 54 48 73 53.1 80% 30.02 1016.5
10 23:52 Calm 10.00 Fair CLR 55 48 77% 30.01 1016.1
10 22:52 Calm 9.00 Fair CLR 55.9 48 75% 29.99 1015.3
10 21:52 Calm 10.00 Fair CLR 60.1 48 65% 29.98 1014.8
10 20:52 NE 3 10.00 Fair CLR 64 48 56% 29.95 1014.1
10 19:52 N 5 10.00 Fair CLR 70 46.9 44% 29.96 1014.1
10 18:52 NE 8 10.00 Fair CLR 73 46 75.9 73 38% 29.95 1014.0
10 17:52 NE 10 10.00 A Few Clouds FEW055 73.9 48.9 41% 29.95 1013.9
10 16:52 N 8 10.00 Partly Cloudy SCT055 73.9 50 43% 29.96 1014.3
10 15:52 N 9 G 23 10.00 Fair CLR 75.9 48.9 39% 78 29.96 1014.3
10 14:52 N 12 10.00 Partly Cloudy SCT055 75 51.1 43% 78 29.96 1014.4
10 13:52 N 10 G 20 10.00 Partly Cloudy SCT050 73.9 51.1 45% 29.97 1014.6
10 12:52 Vrbl 6 10.00 A Few Clouds FEW055 72 53.1 73.9 60.1 52% 29.98 1015.0
10 11:52 NW 10 10.00 Mostly Cloudy BKN049 71.1 53.1 53% 30 1015.6
10 10:52 N 8 10.00 Overcast BKN041 OVC047 68 53.1 59% 30 1015.6
10 09:52 N 8 10.00 Partly Cloudy SCT048 70 53.1 55% 29.99 1015.1
10 08:52 NW 5 10.00 Fair CLR 66.9 52 59% 29.99 1015.2
10 07:52 N 7 10.00 Fair CLR 64 52 65% 29.98 1014.7
10 06:52 N 3 10.00 Fair CLR 60.1 51.1 62.1 54 72% 29.97 1014.4
10 05:52 Calm 10.00 Fair CLR 55 50 83% 29.95 1014.1
10 04:52 N 7 10.00 Fair CLR 55 50 83% 29.95 1013.8
10 03:52 N 6 10.00 Fair CLR 57 48.9 74% 29.93 1013.2
10 02:52 N 6 10.00 Fair CLR 59 48 67% 29.93 1013.1
10 01:52 N 7 10.00 Fair CLR 61 48 63% 29.92 1012.9
10 00:52 NW 5 10.00 Fair CLR 62.1 46.9 81 61 58% 29.92 1012.6
09 23:52 N 5 10.00 Fair CLR 64.9 46 51% 29.91 1012.6
09 22:52 W 6 10.00 Fair CLR 63 48 58% 29.91 1012.3
09 21:52 W 7 10.00 Fair CLR 66.9 46 47% 29.9 1012.3
09 20:52 NW 6 10.00 Fair CLR 72 42.1 34% 29.89 1011.9
09 19:52 NW 10 10.00 Fair CLR 78.1 41 27% 78 29.88 1011.6
09 18:52 NW 18 10.00 Fair CLR 81 42.1 84 79 25% 79 29.89 1011.8
09 17:52 W 17 G 26 10.00 A Few Clouds FEW100 81 46 29% 80 29.9 1012.0
09 16:52 NW 13 10.00 Partly Cloudy SCT095 82.9 46.9 28% 81 29.91 1012.4
09 15:52 W 16 G 22 10.00 Fair CLR 84 45 25% 82 29.91 1012.5
09 14:52 NW 15 10.00 Fair CLR 82.9 46.9 28% 81 29.92 1012.9
09 13:52 N 12 G 17 10.00 Fair CLR 82 46 28% 80 29.92 1012.9
Date Time (cdt) Wind (mph) Vis. (mi.) Weather Sky Cond. Air Dwpt Max. Min. Relative Humidity Wind Chill (°F) Heat Index (°F) altimeter (in) sea level (mb) 1 hr 3 hr 6 hr
6 hour
Temperature (ºF) Pressure Precipitation (in)